Location: Nitra
(0.0000°N, 18.0833°E)
Time: 05:06:00
(UTC+01:00)

SJ-11-01 - Pass Details

Date: 24 January 2021
Orbit: 684 x 700 km, 98.0° (Epoch: 04 March)

Event Time Altitude Azimuth Distance (km) Brightness Sun altitude
Rises 18:57:54 0° 164° (SSE) 3,077 7.7 -13.7°
Reaches altitude 10° 19:00:10 10° 162° (SSE) 2,156 6.9 -14.2°
Maximum altitude 19:04:52 71° 78° (ENE) 734 4.2 -15.3°
Drops below altitude 10° 19:09:32 10° 355° (N) 2,137 6.7 -16.4°
Sets 19:11:46 0° 353° (N) 3,048 7.5 -17.0°
